Content
SEND FEEDBACK

Daily
Averages
Monthly
Summary
Canada

VANCOUVER, BRITISH COLUMBIA


Home > North America > Canada > British Columbia
Elevation: 7 feet     Latitude: 49 11N     Longitude: 123 10W

WEATHER
 
SELECT A DAY
Number of Records: 249,213;   Date Range: 5/15/97 - 4/23/14
 
SHARE

PRINT THIS DATA

[ ← Previous Day ]
WEATHER ALMANAC - FEBRUARY 16, 2014
[ Next Day → ]
[ °C ]   °F
Weather ElementAverageHighLow
Temperature41.5 °F44.6 °F (12:35 am)37.4 °F (4:00 am)
Dewpoint35.7 °F39.2 °F (5:35 pm)32 °F (12:35 am)
Humidity80.5 %93 % (4:00 am)61 % (12:35 am)
Barometer29.71 in29.87 in (10:55 am)29.53 in (12:35 am)
Wind Speed11.8 mph21.9 mph (9:15 pm)
Wind Gust39.1 mph (4:15 pm)
Weather ElementAverage
Visibility8.3 mi
Wind DirectionSSW (187.9 °)

Weather ElementTotal
Precipitation0.63 in
Heating Degree Days24 (Base 65)
Averaged from 71 records on February 16, 2014
WEATHER CONDITIONS BREAKOUT
WIND DIRECTION BREAKOUT
WEATHER BY HOUR - FEBRUARY 16, 2014
[ °C ]   °F
Local TimeTemperatureDewpointHumidityBarometerVisibilityWind DirectionWind SpeedGust SpeedPrecipitationEventsConditions
12:35 AM44.6 °F32.0 °F61 %29.53 in10.0 miSW (220°)16.1 mph31.1 mphClear
12:55 AM42.8 °F32.0 °F66 %29.55 in10.0 miSSW (210°)13.8 mph34.5 mphClear
1:15 AM41.0 °F32.0 °F70 %29.57 in10.0 miSSW (210°)13.8 mph21.9 mphClear
1:35 AM41.0 °F32.0 °F70 %29.58 in10.0 miSSW (200°)13.8 mph25.3 mphClear
1:55 AM41.0 °F32.0 °F70 %29.58 in10.0 miSSW (200°)18.4 mph23.0 mphClear
2:15 AM41.0 °F33.8 °F76 %29.59 in10.0 miSSW (210°)12.7 mph20.7 mphClear
2:35 AM41.0 °F33.8 °F76 %29.60 in10.0 miSSW (200°)16.1 mph25.3 mphClear
2:55 AM39.2 °F32.0 °F75 %29.63 in10.0 miSSW (200°)12.7 mph20.7 mphClear
3:15 AM41.0 °F33.8 °F76 %29.63 in10.0 miSSW (210°)12.7 mph17.3 mphMostly Cloudy
3:35 AM41.0 °F35.6 °F81 %29.65 in7.0 miSW (220°)12.7 mph24.2 mphRainLight Rain
4:00 AM37.4 °F35.6 °F93 %29.66 in10.0 miSSW (200°)12.7 mph18.4 mphPartly Cloudy
4:15 AM39.2 °F35.6 °F87 %29.67 in10.0 miSSW (210°)11.5 mph16.1 mphClear
4:35 AM39.2 °F32.0 °F75 %29.68 in10.0 miSW (230°)6.9 mphClear
4:55 AM39.2 °F32.0 °F75 %29.70 in10.0 miSW (220°)5.8 mphPartly Cloudy
5:15 AM39.2 °F32.0 °F75 %29.72 in10.0 miSSW (210°)9.2 mph24.2 mphPartly Cloudy
5:35 AM39.2 °F32.0 °F75 %29.73 in10.0 miSouth (190°)11.5 mph18.4 mphScattered Clouds
5:55 AM39.2 °F32.0 °F75 %29.73 in10.0 miSouth (190°)10.4 mphClear
6:15 AM39.2 °F32.0 °F75 %29.74 in10.0 miSSW (210°)13.8 mphClear
6:35 AM39.2 °F32.0 °F75 %29.75 in10.0 miSSW (210°)12.7 mph21.9 mphClear
6:55 AM39.2 °F32.0 °F75 %29.76 in10.0 miSSW (200°)8.1 mphClear
7:15 AM39.2 °F32.0 °F75 %29.78 in10.0 miSSW (210°)8.1 mphPartly Cloudy
7:35 AM39.2 °F33.8 °F81 %29.79 in3.0 miSSW (210°)15.0 mph25.3 mphMostly Cloudy
7:55 AM37.4 °F33.8 °F87 %29.80 in10.0 miSSW (210°)12.7 mph21.9 mphScattered Clouds
8:15 AM37.4 °F33.8 °F87 %29.81 in9.0 miSouth (180°)8.1 mph17.3 mphClear
8:35 AM37.4 °F35.6 °F93 %29.82 in10.0 miSouth (180°)6.9 mphClear
8:55 AM39.2 °F35.6 °F87 %29.83 in10.0 miSouth (190°)10.4 mphClear
9:15 AM39.2 °F35.6 °F87 %29.84 in10.0 miSSW (200°)10.4 mphClear
9:35 AM39.2 °F35.6 °F87 %29.86 in10.0 miSouth (190°)9.2 mphClear
9:55 AM39.2 °F35.6 °F87 %29.86 in5.0 miSSW (200°)8.1 mphRainLight Rain
10:15 AM41.0 °F35.6 °F81 %29.86 in9.0 miSSE (160°)5.8 mphRainLight Rain
10:35 AM41.0 °F35.6 °F81 %29.86 in10.0 miSouth (170°)5.8 mphClear
10:55 AM42.8 °F35.6 °F76 %29.87 in10.0 miSouth (180°)8.1 mphClear
11:15 AM44.6 °F35.6 °F71 %29.87 in10.0 miSouth (190°)10.4 mphClear
11:35 AM44.6 °F35.6 °F71 %29.86 in10.0 miSouth (180°)6.9 mphClear
11:55 AM44.6 °F35.6 °F71 %29.87 in10.0 miSouth (190°)10.4 mph16.1 mphPartly Cloudy
12:15 PM44.6 °F35.6 °F71 %29.86 in10.0 miSouth (170°)10.4 mph21.9 mphPartly Cloudy
12:35 PM44.6 °F35.6 °F71 %29.86 in10.0 miSouth (180°)9.2 mphPartly Cloudy
12:55 PM44.6 °F35.6 °F71 %29.84 in10.0 miSouth (170°)6.9 mphScattered Clouds
1:15 PM44.6 °F35.6 °F71 %29.83 in10.0 miSouth (170°)5.8 mphScattered Clouds
1:35 PM44.6 °F35.6 °F71 %29.82 in10.0 miSSE (150°)5.8 mphScattered Clouds
1:55 PM44.6 °F35.6 °F71 %29.80 in10.0 miSSE (150°)9.2 mphMostly Cloudy
2:15 PM44.6 °F35.6 °F71 %29.79 in10.0 miSSE (160°)8.1 mph21.9 mphMostly Cloudy
2:35 PM44.6 °F35.6 °F71 %29.78 in9.0 miSSE (160°)11.5 mph26.5 mphMostly Cloudy
2:55 PM44.6 °F35.6 °F71 %29.74 in10.0 miSSE (160°)11.5 mph23.0 mphMostly Cloudy
3:15 PM44.6 °F35.6 °F71 %29.72 in10.0 miSSE (160°)12.7 mph29.9 mphScattered Clouds
3:35 PM44.6 °F35.6 °F71 %29.70 in10.0 miSouth (170°)10.4 mph21.9 mphScattered Clouds
3:55 PM44.6 °F35.6 °F71 %29.67 in10.0 miSSE (160°)12.7 mph27.6 mphMostly Cloudy
4:15 PM44.6 °F35.6 °F71 %29.66 in10.0 miSouth (170°)16.1 mph39.1 mphScattered Clouds
4:35 PM44.6 °F35.6 °F71 %29.64 in10.0 miSouth (170°)13.8 mph38.0 mphScattered Clouds
4:55 PM44.6 °F35.6 °F71 %29.63 in6.0 miSouth (170°)16.1 mph28.8 mphRainLight Rain
5:15 PM42.8 °F37.4 °F81 %29.62 in4.0 miSouth (170°)13.8 mph32.2 mphRainLight Rain
5:35 PM42.8 °F39.2 °F87 %29.62 in3.0 miSouth (170°)10.4 mph36.8 mph0.01 inRainLight Rain
5:55 PM41.0 °F39.2 °F93 %29.60 in3.0 miSouth (170°)15.0 mph32.2 mph0.03 inOvercast
6:15 PM41.0 °F39.2 °F93 %29.61 in3.0 miSouth (180°)16.1 mph28.8 mph0.02 inOvercast
6:35 PM41.0 °F39.2 °F93 %29.63 in3.0 miSouth (180°)15.0 mph28.8 mph0.03 inOvercast
6:55 PM41.0 °F39.2 °F93 %29.64 in3.0 miSouth (180°)16.1 mph25.3 mph0.07 inOvercast
7:15 PM41.0 °F39.2 °F93 %29.65 in3.0 miSouth (180°)16.1 mph28.8 mph0.05 inOvercast
7:35 PM41.0 °F39.2 °F93 %29.65 in3.0 miSouth (180°)13.8 mph28.8 mph0.10 inOvercast
7:55 PM41.0 °F39.2 °F93 %29.64 in5.0 miSouth (180°)15.0 mph25.3 mph0.12 inOvercast
8:15 PM41.0 °F39.2 °F93 %29.64 in5.0 miSouth (190°)12.7 mph26.5 mphRainLight Rain
8:35 PM41.0 °F39.2 °F93 %29.64 in4.0 miSouth (180°)15.0 mph25.3 mph0.01 inOvercast
8:55 PM41.0 °F39.2 °F93 %29.63 in8.0 miSouth (190°)15.0 mph26.5 mph0.01 inRainLight Rain
9:15 PM41.0 °F39.2 °F93 %29.63 in5.0 miSSW (210°)21.9 mph29.9 mphRainLight Rain
9:35 PM41.0 °F39.2 °F93 %29.64 in10.0 miSouth (190°)16.1 mph25.3 mphMostly Cloudy
9:55 PM41.0 °F39.2 °F93 %29.65 in9.0 miSouth (180°)11.5 mph25.3 mphMostly Cloudy
10:15 PM41.0 °F39.2 °F93 %29.65 in10.0 miSW (220°)20.7 mph25.3 mphMostly Cloudy
10:35 PM42.8 °F39.2 °F87 %29.66 in7.0 miSSW (200°)16.1 mph25.3 mphRainLight Rain
10:55 PM41.0 °F39.2 °F93 %29.67 in3.0 miSouth (190°)10.4 mph16.1 mph0.04 inMostly Cloudy
11:15 PM41.0 °F39.2 °F93 %29.66 in3.0 miSouth (180°)6.9 mph0.04 inOvercast
11:35 PM41.0 °F39.2 °F93 %29.67 in5.0 miSouth (180°)8.1 mph0.05 inRainLight Rain
11:55 PM41.0 °F39.2 °F93 %29.66 in10.0 miSouth (180°)10.4 mph17.3 mph0.05 inPartly Cloudy
Hourly data recorded from CZBB, located miles away from Vancouver, British Columbia







STORIES FROM OUR PARTNERS